Satellite-Ground Cal/Val Region Overpasses Predictions

Prediction of Satellite NPP Overpassing Cal/Val Region: PacNW

Region Location: (Latitude: 10.00, Longitude: 139.50) to (Latitude: 22.70, Longitude: 165.60).

Table of predicted overpasses for the next 14.0 days since TLE Epoch: 1/26/2017
Interval Starting Time Starting Location Ending Time Ending Location
1 01/27/2017 02:33:17 ( 10.02, 161.39) 01/27/2017 02:36:53 ( 22.70, 158.37)
2 01/27/2017 15:05:10 ( 22.69, 158.62) 01/27/2017 15:08:46 ( 10.01, 155.61)
3 01/28/2017 02:14:56 ( 12.42, 165.60) 01/28/2017 02:17:51 ( 22.69, 163.13)
4 01/28/2017 03:55:45 ( 10.02, 140.77) 01/28/2017 03:57:18 ( 15.48, 139.51)
5 01/28/2017 14:46:07 ( 22.70, 163.38) 01/28/2017 14:49:43 ( 10.01, 160.37)
6 01/29/2017 03:36:42 ( 10.01, 145.53) 01/29/2017 03:40:18 ( 22.69, 142.52)
7 01/29/2017 14:30:06 ( 12.08, 165.60) 01/29/2017 14:30:41 ( 10.02, 165.13)
8 01/29/2017 16:08:35 ( 22.69, 142.77) 01/29/2017 16:12:11 ( 10.01, 139.75)
9 01/30/2017 03:17:40 ( 10.01, 150.29) 01/30/2017 03:21:16 ( 22.69, 147.28)
10 01/30/2017 15:49:32 ( 22.70, 147.53) 01/30/2017 15:53:08 ( 10.02, 144.51)
11 01/31/2017 02:58:37 ( 10.00, 155.05) 01/31/2017 03:02:13 ( 22.68, 152.04)
12 01/31/2017 15:30:31 ( 22.65, 152.27) 01/31/2017 15:34:06 ( 10.02, 149.27)
13 02/01/2017 02:39:36 ( 10.05, 159.80) 02/01/2017 02:43:11 ( 22.67, 156.80)
14 02/01/2017 15:11:28 ( 22.65, 157.03) 02/01/2017 15:15:03 ( 10.03, 154.03)
15 02/02/2017 02:20:33 ( 10.05, 164.56) 02/02/2017 02:24:08 ( 22.67, 161.56)
16 02/02/2017 14:52:26 ( 22.66, 161.79) 02/02/2017 14:56:01 ( 10.03, 158.79)
17 02/03/2017 03:43:01 ( 10.05, 143.95) 02/03/2017 03:46:36 ( 22.67, 140.95)
18 02/03/2017 14:34:31 ( 18.73, 165.59) 02/03/2017 14:36:59 ( 10.04, 163.55)
19 02/03/2017 16:14:53 ( 22.65, 141.18) 02/03/2017 16:16:50 ( 15.79, 139.51)
20 02/04/2017 03:23:58 ( 10.05, 148.71) 02/04/2017 03:27:33 ( 22.67, 145.71)
21 02/04/2017 15:55:51 ( 22.66, 145.94) 02/04/2017 15:59:26 ( 10.03, 142.94)
22 02/05/2017 03:04:56 ( 10.04, 153.47) 02/05/2017 03:08:31 ( 22.66, 150.47)
23 02/05/2017 15:36:49 ( 22.66, 150.70) 02/05/2017 15:40:24 ( 10.04, 147.70)
24 02/06/2017 02:45:53 ( 10.04, 158.23) 02/06/2017 02:49:28 ( 22.66, 155.23)
25 02/06/2017 15:17:46 ( 22.67, 155.46) 02/06/2017 15:21:21 ( 10.04, 152.46)
26 02/07/2017 02:26:51 ( 10.03, 162.99) 02/07/2017 02:30:26 ( 22.65, 159.99)
27 02/07/2017 14:58:44 ( 22.67, 160.22) 02/07/2017 15:02:19 ( 10.05, 157.22)
28 02/08/2017 02:10:24 ( 19.19, 165.60) 02/08/2017 02:11:23 ( 22.65, 164.75)
29 02/08/2017 03:49:18 ( 10.04, 142.37) 02/08/2017 03:52:44 ( 22.13, 139.50)
30 02/08/2017 14:39:41 ( 22.67, 164.98) 02/08/2017 14:43:16 ( 10.05, 161.98)
31 02/08/2017 16:21:11 ( 22.66, 139.60) 02/08/2017 16:21:18 ( 22.25, 139.50)
32 02/09/2017 03:30:16 ( 10.03, 147.13) 02/09/2017 03:33:51 ( 22.66, 144.13)


NCC Satellite Cal/Val Overpasses Prediction Service
